Track IRIDIUM 102 now! 10-day predictions IRIDIUM 102 is classified as:
1 41920U 17003D 25196.63363765 .00000007 00000-0 -44987-5 0 9994 2 41920 86.3958 229.0002 0002297 94.0137 266.1322 14.34217515445048